sat.trackr.live / text

‹ back to catalog

NINGXIA-1 1

NORAD 44779 · 2019-076A

PAYLOAD ACTIVE UNKNOWN

§ Identity

Operator
Country
PRC
Launch date
2019-11-13
Launch site
TAISC
Launch vehicle
Mass (kg)
RCS (m²)

External: N2YO · Heavens-Above · Gunter

§ Orbital elements

Epoch: 2026-09-10T04:33:02.208096Z

Period
102.70 min
Inclination
45.0047°
Eccentricity
0.0010910
Mean motion
14.02113706 rev/d
Perigee alt
878.6 km
Apogee alt
894.4 km
Semi-major
7,264.6 km
B*
5.7568e-5
RAAN
159.9649°
Arg perigee
201.5785°
Mean anomaly
158.4590°
Rev number
34,978

§ Raw data

NINGXIA-1 11 44779U 19076A   26253.18960889 -.00000041  00000+0  57568-4 0  99912 44779  45.0047 159.9649 0010910 201.5785 158.4590 14.02113706349783

JSON: /api/v1/satellites/44779 · /tle

For live sub-satellite position, see the globe view (requires WebGL).

§ Visibility from observer

Set your observer location to see the next 7 days of passes ≥ 10°. The values pass through the URL so the page stays shareable.

No JS? Fill the form by hand. The geolocation button needs JavaScript.

§ Radio — SatNOGS DB

ModeDescriptionDownlinkUplink
FM Mode S possible 2.271 GHz
BPSK S-band telemetry 2.203 GHz

2 transmitters · refreshed weekly from db.satnogs.org